Simultaneous Nadir Overpasses (SNOs) Predictions

Prediction of SNOs over PacNW region [( 10.00, 139.50) to ( 22.70, 165.60)] between AQUA and NPP Satellites:

Table of predicted SNOs over PacNW region for the next 30.0 days since TLE Epoch: 8/18/2018
Index Date (AQUA) Time (AQUA) AQUA Lat,Lon Date (NPP) Time (NPP) NPP Lat,Lon Distance(km) Time Diff (sec)
1 08/23/2018 16:00:05 22.59, 147.33 08/23/2018 16:02:00 23.17, 144.61 286.27 115
2 08/31/2018 15:10:30 22.61, 159.72 08/31/2018 15:11:20 23.13, 157.28 256.80 50
3 09/03/2018 03:32:18 22.69, 147.41 09/03/2018 03:28:48 26.90, 144.72 540.43 210
4 09/08/2018 15:59:48 22.59, 147.37 09/08/2018 16:02:08 23.19, 144.59 292.82 140




NCC Satellite Simultaneous Nadir Overpasses (SNOs) Prediction Service
